Showing default

SOLRAD 3/INJUN 1, 117

Orbit data source: Space-Track

SOLRAD 3/INJUN 1, 117 is an American payload satellite in LEO that was launched on Thu, 29 Jun 1961 UTC via a THOR ABLESTAR launch vehicle from the Air Force Eastern Test Range (AFETR). Payload-class satellites include a variety of spacecraft equipped with specific instruments for various scientific and technological missions. These include communications satellites like Starlink; space stations such as the ISS; scientific satellites like the Hubble; Earth observation satellites from companies like Planet Labs, Umbra, and HawkEye 360; GPS; miniature CubeSats for education and research; and military/defense satellites.

Loading next visibility...
Identifier
117, 1961-015B
Orbit
LEO
Country
Flag of USUS
Related business
Manufacturer
SUI/APL
Mission
Spacecraft
Bus & Motor
INJUN, Unknown motor
Mass
43 kg wet, 18 kg dry
Launch date (UTC)
1961-06-29 (65 years ago)
Launch vehicle
THOR ABLESTAR
Launch site
Air Force Eastern Test Range (AFETR)
Object type
Payload
Rocket body
Debris
Shape & HBR
Unknown
Radar Cross Section
Medium (>0.1 m² and <1 m²)

Expand to show TLE details & history
Last TLE update: 4 days ago

TLE from 4 days ago
0 SOLRAD 3/INJUN 1
1 00117U 61015B   26155.13870821 -.00000005  00000-0  56458-4 0  9999
2 00117  66.8136  36.9568 0083277 304.2121  55.1086 13.90189514292243
Epoch: 2026-06-04T03:19Z
TLE epoch observation values (Epoch: 2026-06-04T03:19:44.389Z)
Latitude
0.00004°
Longitude
94.43459°
Altitude
895.579 km
Speed
7.422 km/s
True Right ascension
02h 27m 49s
True Declination
0° 00' 00"
Sunlit
Object was in daylight at epoch
Visualization orbit readout
Latitude
Unknown
Longitude
Unknown
Altitude
Unknown
Speed
Unknown
Apparent Right ascension
Unknown
Apparent Declination
Unknown
Sunlit
N/A
Visualization observer readout
Local Sidereal Time
11:50:22
Azimuth
Unknown
Elevation
Unknown
Doppler factor
Unknown
Orbital elements
Apogee altitude
987.189 km
Perigee altitude
865.529 km
Semi-major axis
7,304.496 km
Eccentricity
0.00833
Inclination
66.8136°
RAAN
36.9568°
Arg. of periapsis
304.2121°
True anomaly
55.896°
Mean anomaly
55.1086°
Eccentric anomaly
55.50183°
Mean motion
3.47662 °/min
Orbital period
103.55 mins
BSTAR
0.000056458
Loading maneuver chart data...
Computing Atmospheric mass density...
Loading historical data...
Loading historical data...
Loading historical data...
Loading historical data...
Loading historical data...
Loading historical data...
Loading historical data...

Documentation

Showing up to 5 results
|